| time (UTC) | temp F | wind direction | speed knots | gust knots | rain 1hr in | rain 24hr in | rain mn in | humidity % | barometer mb |
| 20260510072610 | 47 | 27 | 0.0 | 0.0 | 0.00 | 0.00 | 0.00 | 99 | 1012.6 |
| 20260510072107 | 47 | 27 | 0.0 | 0.0 | 0.00 | 0.00 | 0.00 | 99 | 1012.6 |
| 20260510071602 | 47 | 19 | 0.0 | 0.0 | 0.00 | 0.00 | 0.00 | 99 | 1012.6 |
| 20260510071101 | 47 | 19 | 0.0 | 0.0 | 0.00 | 0.00 | 0.00 | 99 | 1012.5 |
| 20260510070557 | 47 | 314 | 0.0 | 0.0 | 0.00 | 0.00 | 0.00 | 99 | 1012.8 |
| 20260510070054 | 48 | 70 | 0.0 | 0.0 | 0.00 | 0.00 | 0.00 | 99 | 1012.5 |
| 20260510065550 | 48 | 3 | 0.0 | 0.0 | 0.00 | 0.00 | 0.00 | 99 | 1012.6 |
| 20260510065047 | 48 | 292 | 0.0 | 0.0 | 0.00 | 0.00 | 0.00 | 99 | 1012.5 |
| 20260510064543 | 48 | 57 | 0.0 | 0.0 | 0.00 | 0.00 | 0.00 | 99 | 1012.6 |
| 20260510064040 | 48 | 57 | 0.0 | 0.0 | 0.00 | 0.00 | 0.00 | 99 | 1012.6 |
| 20260510063537 | 48 | 57 | 0.0 | 0.0 | 0.00 | 0.00 | 0.00 | 99 | 1012.6 |
| 20260510063034 | 48 | 57 | 0.0 | 0.0 | 0.00 | 0.00 | 0.00 | 99 | 1012.8 |
| 20260510062530 | 48 | 58 | 0.0 | 0.0 | 0.00 | 0.00 | 0.00 | 99 | 1012.8 |
| 20260510062025 | 48 | 77 | 0.0 | 0.0 | 0.00 | 0.00 | 0.00 | 99 | 1012.8 |
| 20260510061522 | 48 | 93 | 0.0 | 0.0 | 0.00 | 0.00 | 0.00 | 99 | 1012.9 |
| 20260510061018 | 48 | 94 | 0.0 | 0.0 | 0.00 | 0.00 | 0.00 | 99 | 1012.8 |
| 20260510060515 | 48 | 114 | 0.0 | 0.0 | 0.00 | 0.00 | 0.00 | 99 | 1012.9 |
| 20260510060011 | 48 | 109 | 0.0 | 0.0 | 0.00 | 0.00 | 0.00 | 99 | 1012.9 |
| 20260510055507 | 48 | 109 | 0.0 | 0.0 | 0.00 | 0.00 | 0.00 | 99 | 1012.8 |
| 20260510055006 | 48 | 117 | 0.0 | 0.0 | 0.00 | 0.00 | 0.00 | 99 | 1012.8 |
| 20260510054501 | 48 | 123 | 0.0 | 0.0 | 0.00 | 0.00 | 0.00 | 99 | 1012.9 |
| 20260510053956 | 48 | 123 | 0.0 | 0.0 | 0.00 | 0.00 | 0.00 | 99 | 1013.0 |
| 20260510053451 | 48 | 124 | 0.0 | 0.0 | 0.00 | 0.00 | 0.00 | 98 | 1013.0 |
| 20260510052948 | 48 | 116 | 0.0 | 0.0 | 0.00 | 0.00 | 0.00 | 98 | 1013.1 |
| 20260510052444 | 48 | 116 | 0.0 | 0.0 | 0.00 | 0.00 | 0.00 | 98 | 1013.2 |
| 20260510051940 | 48 | 116 | 0.0 | 0.0 | 0.00 | 0.00 | 0.00 | 98 | 1013.1 |
| 20260510051436 | 49 | 124 | 0.0 | 0.0 | 0.00 | 0.00 | 0.00 | 98 | 1013.2 |
| 20260510050933 | 49 | 133 | 0.0 | 0.0 | 0.00 | 0.00 | 0.00 | 98 | 1013.2 |
| 20260510050430 | 48 | 273 | 0.0 | 0.0 | 0.00 | 0.00 | 0.00 | 98 | 1013.2 |
| 20260510045927 | 48 | 273 | 0.0 | 0.0 | 0.00 | 0.00 | 0.00 | 98 | 1013.3 |
| 20260510045424 | 49 | 273 | 0.0 | 0.0 | 0.00 | 0.00 | 0.00 | 98 | 1013.2 |
| 20260510044921 | 49 | 274 | 0.0 | 0.0 | 0.00 | 0.00 | 0.00 | 98 | 1012.9 |
| 20260510044418 | 49 | 273 | 0.0 | 0.0 | 0.00 | 0.00 | 0.00 | 98 | 1013.0 |
| 20260510043915 | 48 | 273 | 0.0 | 0.0 | 0.00 | 0.00 | 0.00 | 98 | 1012.9 |
| 20260510043410 | 49 | 273 | 0.0 | 0.0 | 0.00 | 0.00 | 0.00 | 98 | 1012.9 |
| 20260510042909 | 48 | 273 | 0.0 | 0.0 | 0.00 | 0.00 | 0.00 | 98 | 1012.6 |
| 20260510042404 | 49 | 273 | 0.0 | 0.0 | 0.00 | 0.00 | 0.00 | 98 | 1013.0 |
| 20260510041900 | 49 | 279 | 0.0 | 0.0 | 0.00 | 0.00 | 0.00 | 98 | 1012.9 |
| 20260510041358 | 49 | 279 | 0.0 | 0.0 | 0.00 | 0.00 | 0.00 | 98 | 1012.9 |
| 20260510040855 | 49 | 272 | 0.0 | 0.0 | 0.00 | 0.00 | 0.00 | 98 | 1012.8 |
| 20260510040352 | 49 | 272 | 0.0 | 0.0 | 0.00 | 0.00 | 0.00 | 98 | 1012.6 |
| 20260510035847 | 49 | 267 | 0.0 | 0.0 | 0.00 | 0.00 | 0.00 | 98 | 1012.6 |
| 20260510035343 | 49 | 261 | 0.0 | 0.0 | 0.00 | 0.00 | 0.00 | 97 | 1012.5 |
| 20260510034839 | 49 | 261 | 0.0 | 0.0 | 0.00 | 0.00 | 0.00 | 97 | 1012.8 |
| 20260510034337 | 49 | 261 | 0.0 | 0.0 | 0.00 | 0.00 | 0.00 | 97 | 1012.8 |
| 20260510033833 | 49 | 261 | 0.0 | 0.0 | 0.00 | 0.00 | 0.00 | 97 | 1012.6 |
| 20260510033330 | 49 | 261 | 0.0 | 0.0 | 0.00 | 0.00 | 0.00 | 97 | 1012.8 |
| 20260510032827 | 49 | 262 | 0.0 | 0.0 | 0.00 | 0.00 | 0.00 | 97 | 1012.4 |
| 20260510032324 | 50 | 262 | 0.0 | 0.0 | 0.00 | 0.00 | 0.00 | 97 | 1012.5 |
| 20260510031819 | 50 | 262 | 0.0 | 0.9 | 0.00 | 0.00 | 0.00 | 97 | 1012.4 |
| 20260510031315 | 50 | 270 | 0.0 | 0.0 | 0.00 | 0.00 | 0.00 | 97 | 1012.3 |
| 20260510030809 | 50 | 270 | 0.0 | 0.0 | 0.00 | 0.00 | 0.00 | 97 | 1012.3 |
| 20260510030306 | 50 | 270 | 0.0 | 0.0 | 0.00 | 0.00 | 0.00 | 97 | 1012.2 |
| 20260510025803 | 50 | 270 | 0.0 | 0.0 | 0.00 | 0.00 | 0.00 | 96 | 1012.0 |
| 20260510025301 | 50 | 270 | 0.0 | 0.0 | 0.00 | 0.00 | 0.00 | 96 | 1012.1 |
| 20260510024757 | 50 | 270 | 0.0 | 0.0 | 0.00 | 0.00 | 0.00 | 96 | 1012.2 |
| 20260510024254 | 50 | 270 | 0.0 | 0.0 | 0.00 | 0.00 | 0.00 | 96 | 1012.2 |
| 20260510023750 | 50 | 270 | 0.0 | 0.0 | 0.00 | 0.00 | 0.00 | 96 | 1012.3 |
| 20260510023247 | 51 | 270 | 0.0 | 0.0 | 0.00 | 0.00 | 0.00 | 96 | 1012.2 |
| 20260510022743 | 51 | 270 | 0.0 | 0.0 | 0.00 | 0.00 | 0.00 | 95 | 1012.1 |
| 20260510022243 | 51 | 270 | 0.0 | 0.0 | 0.00 | 0.00 | 0.00 | 95 | 1012.0 |
| 20260510021743 | 51 | 270 | 0.0 | 0.0 | 0.00 | 0.00 | 0.00 | 95 | 1012.1 |
| 20260510021241 | 51 | 270 | 0.0 | 0.0 | 0.00 | 0.00 | 0.00 | 95 | 1012.0 |
| 20260510020736 | 52 | 270 | 0.0 | 0.0 | 0.00 | 0.00 | 0.00 | 95 | 1011.7 |
| 20260510020231 | 52 | 270 | 0.0 | 0.0 | 0.00 | 0.00 | 0.00 | 95 | 1011.8 |
| 20260510015728 | 52 | 270 | 0.0 | 0.0 | 0.00 | 0.00 | 0.00 | 94 | 1011.7 |
| 20260510015224 | 52 | 270 | 0.0 | 0.0 | 0.00 | 0.00 | 0.00 | 94 | 1011.7 |
| 20260510014719 | 52 | 270 | 0.0 | 0.0 | 0.00 | 0.00 | 0.00 | 93 | 1011.4 |
| 20260510014217 | 53 | 270 | 0.0 | 0.0 | 0.00 | 0.00 | 0.00 | 93 | 1011.3 |
| 20260510013712 | 53 | 270 | 0.0 | 0.0 | 0.00 | 0.00 | 0.00 | 93 | 1011.3 |
| 20260510013208 | 53 | 270 | 0.0 | 0.0 | 0.00 | 0.00 | 0.00 | 92 | 1011.4 |
| 20260510012707 | 53 | 270 | 0.0 | 0.0 | 0.00 | 0.00 | 0.00 | 92 | 1011.2 |
| 20260510012203 | 54 | 270 | 0.0 | 0.0 | 0.00 | 0.00 | 0.00 | 92 | 1011.2 |
| 20260510011658 | 54 | 270 | 0.0 | 0.0 | 0.00 | 0.00 | 0.00 | 91 | 1011.2 |
| 20260510011154 | 55 | 270 | 0.0 | 0.0 | 0.00 | 0.00 | 0.00 | 91 | 1011.2 |
| 20260510010650 | 55 | 261 | 0.0 | 0.0 | 0.00 | 0.00 | 0.00 | 90 | 1011.1 |
| 20260510010147 | 56 | 261 | 0.0 | 0.0 | 0.00 | 0.00 | 0.00 | 89 | 1011.1 |
| 20260510005643 | 56 | 261 | 0.0 | 0.0 | 0.00 | 0.00 | 0.00 | 88 | 1010.8 |
| 20260510005140 | 56 | 261 | 0.0 | 0.0 | 0.00 | 0.00 | 0.00 | 88 | 1010.9 |
| 20260510004639 | 57 | 261 | 0.0 | 0.0 | 0.00 | 0.00 | 0.00 | 86 | 1010.9 |
| 20260510004136 | 58 | 236 | 0.0 | 0.0 | 0.00 | 0.00 | 0.00 | 85 | 1010.7 |
| 20260510003633 | 58 | 265 | 0.0 | 0.0 | 0.00 | 0.00 | 0.00 | 84 | 1010.7 |
| 20260510003129 | 58 | 234 | 0.0 | 0.0 | 0.00 | 0.00 | 0.00 | 83 | 1010.7 |
| 20260510002629 | 59 | 261 | 0.0 | 0.0 | 0.00 | 0.00 | 0.00 | 83 | 1010.7 |
| 20260510002126 | 60 | 271 | 0.0 | 0.9 | 0.00 | 0.00 | 0.00 | 80 | 1010.6 |
| 20260510001623 | 60 | 174 | 0.9 | 0.9 | 0.00 | 0.00 | 0.00 | 80 | 1010.6 |
| 20260510001122 | 61 | 269 | 0.0 | 0.9 | 0.00 | 0.00 | 0.00 | 78 | 1010.5 |
| 20260510000622 | 61 | 282 | 0.0 | 0.0 | 0.00 | 0.00 | 0.00 | 76 | 1010.2 |
| 20260510000119 | 62 | 273 | 0.0 | 0.9 | 0.00 | 0.00 | 0.00 | 72 | 1010.2 |
| 20260509235615 | 63 | 278 | 0.9 | 0.9 | 0.00 | 0.00 | 0.00 | 73 | 1010.1 |
| 20260509235112 | 64 | 282 | 0.0 | 0.9 | 0.00 | 0.00 | 0.00 | 68 | 1010.2 |
| 20260509234608 | 64 | 288 | 0.0 | 0.0 | 0.00 | 0.00 | 0.00 | 69 | 1010.0 |
| 20260509234106 | 65 | 108 | 0.0 | 0.0 | 0.00 | 0.00 | 0.00 | 63 | 1010.2 |
| 20260509233604 | 65 | 255 | 0.0 | 1.7 | 0.00 | 0.00 | 0.00 | 65 | 1010.2 |
| 20260509233101 | 66 | 81 | 2.6 | 2.6 | 0.00 | 0.00 | 0.00 | 63 | 1010.0 |
| 20260509232557 | 67 | 259 | 0.9 | 3.5 | 0.00 | 0.00 | 0.00 | 61 | 1009.9 |
| 20260509232054 | 67 | 337 | 0.9 | 1.7 | 0.00 | 0.00 | 0.00 | 60 | 1010.0 |
| 20260509231550 | 67 | 310 | 0.9 | 3.5 | 0.00 | 0.00 | 0.00 | 61 | 1009.8 |
| 20260509231048 | 67 | 12 | 0.0 | 1.7 | 0.00 | 0.00 | 0.00 | 60 | 1010.1 |
| 20260509230545 | 67 | 319 | 1.7 | 2.6 | 0.00 | 0.00 | 0.00 | 59 | 1009.9 |
| 20260509230042 | 67 | 54 | 1.7 | 2.6 | 0.00 | 0.00 | 0.00 | 60 | 1009.9 |
| 20260509225537 | 67 | 79 | 0.0 | 0.9 | 0.00 | 0.00 | 0.00 | 60 | 1010.0 |
| 20260509225033 | 68 | 99 | 0.9 | 1.7 | 0.00 | 0.00 | 0.00 | 58 | 1010.0 |
| 20260509224529 | 69 | 2 | 1.7 | 2.6 | 0.00 | 0.00 | 0.00 | 57 | 1010.2 |
| 20260509224026 | 71 | 322 | 0.0 | 0.0 | 0.00 | 0.00 | 0.00 | 55 | 1010.3 |
| 20260509223523 | 69 | 323 | 0.0 | 1.7 | 0.00 | 0.00 | 0.00 | 56 | 1010.4 |
| 20260509223021 | 70 | 283 | 1.7 | 5.2 | 0.00 | 0.00 | 0.00 | 56 | 1010.4 |
| 20260509222516 | 71 | 119 | 1.7 | 3.5 | 0.00 | 0.00 | 0.00 | 54 | 1010.3 |
| 20260509222012 | 70 | 282 | 1.7 | 1.7 | 0.00 | 0.00 | 0.00 | 54 | 1010.3 |
| 20260509221508 | 69 | 277 | 0.9 | 1.7 | 0.00 | 0.00 | 0.00 | 59 | 1010.3 |
| 20260509221004 | 69 | 315 | 0.9 | 2.6 | 0.00 | 0.00 | 0.00 | 57 | 1010.3 |
| 20260509220500 | 70 | 343 | 3.5 | 5.2 | 0.00 | 0.00 | 0.00 | 56 | 1010.2 |
| 20260509215956 | 70 | 285 | 1.7 | 2.6 | 0.00 | 0.00 | 0.00 | 55 | 1010.3 |
| 20260509215452 | 70 | 324 | 4.3 | 5.2 | 0.00 | 0.00 | 0.00 | 54 | 1010.5 |
| 20260509214950 | 70 | 143 | 2.6 | 6.1 | 0.00 | 0.00 | 0.00 | 54 | 1010.4 |
| 20260509214447 | 69 | 358 | 3.5 | 5.2 | 0.00 | 0.00 | 0.00 | 54 | 1010.6 |
| 20260509213943 | 69 | 150 | 3.5 | 7.0 | 0.00 | 0.00 | 0.00 | 57 | 1010.5 |
| 20260509213439 | 69 | 51 | 3.5 | 5.2 | 0.00 | 0.00 | 0.00 | 59 | 1010.5 |
| 20260509212937 | 70 | 269 | 0.9 | 2.6 | 0.00 | 0.00 | 0.00 | 56 | 1010.3 |
| 20260509212434 | 69 | 302 | 0.9 | 2.6 | 0.00 | 0.00 | 0.00 | 57 | 1010.5 |
| 20260509211930 | 68 | 290 | 0.9 | 0.9 | 0.00 | 0.00 | 0.00 | 61 | 1010.5 |
| 20260509211426 | 67 | 313 | 1.7 | 1.7 | 0.00 | 0.00 | 0.00 | 62 | 1010.5 |
| 20260509210922 | 68 | 277 | 0.0 | 2.6 | 0.00 | 0.00 | 0.00 | 58 | 1010.4 |
| 20260509210420 | 68 | 1 | 0.9 | 3.5 | 0.00 | 0.00 | 0.00 | 59 | 1010.4 |
| 20260509205915 | 70 | 33 | 0.9 | 2.6 | 0.00 | 0.00 | 0.00 | 56 | 1010.4 |
| 20260509205414 | 70 | 255 | 2.6 | 5.2 | 0.00 | 0.00 | 0.00 | 54 | 1010.4 |
| 20260509204911 | 71 | 318 | 0.0 | 3.5 | 0.00 | 0.00 | 0.00 | 61 | 1010.3 |
| 20260509204408 | 71 | 330 | 1.7 | 3.5 | 0.00 | 0.00 | 0.00 | 55 | 1010.2 |
| 20260509203904 | 71 | 276 | 3.5 | 5.2 | 0.00 | 0.00 | 0.00 | 58 | 1010.0 |
| 20260509203400 | 70 | 287 | 1.7 | 7.0 | 0.00 | 0.00 | 0.00 | 56 | 1010.4 |
| 20260509202858 | 69 | 321 | 0.9 | 2.6 | 0.00 | 0.00 | 0.00 | 56 | 1010.3 |
| 20260509202353 | 69 | 320 | 2.6 | 3.5 | 0.00 | 0.00 | 0.00 | 60 | 1010.3 |
| 20260509201848 | 69 | 259 | 3.5 | 6.1 | 0.00 | 0.00 | 0.00 | 56 | 1010.4 |
| 20260509201345 | 69 | 111 | 2.6 | 2.6 | 0.00 | 0.00 | 0.00 | 56 | 1010.4 |
| 20260509200842 | 68 | 228 | 2.6 | 2.6 | 0.00 | 0.00 | 0.00 | 56 | 1010.4 |
| 20260509200336 | 68 | 11 | 0.0 | 3.5 | 0.00 | 0.00 | 0.00 | 58 | 1010.6 |
| 20260509195834 | 69 | 230 | 2.6 | 3.5 | 0.00 | 0.00 | 0.00 | 56 | 1010.6 |
| 20260509195333 | 69 | 277 | 3.5 | 5.2 | 0.00 | 0.00 | 0.00 | 56 | 1010.7 |
| 20260509194833 | 69 | 143 | 0.0 | 5.2 | 0.00 | 0.00 | 0.00 | 56 | 1010.8 |
| 20260509194330 | 69 | 247 | 1.7 | 7.0 | 0.00 | 0.00 | 0.00 | 56 | 1010.8 |
| 20260509193827 | 70 | 270 | 3.5 | 6.1 | 0.00 | 0.00 | 0.00 | 56 | 1010.9 |
| 20260509193326 | 68 | 265 | 3.5 | 6.1 | 0.00 | 0.00 | 0.00 | 57 | 1010.7 |
| 20260509192823 | 68 | 283 | 3.5 | 5.2 | 0.00 | 0.00 | 0.00 | 57 | 1010.8 |
| 20260509192319 | 69 | 320 | 2.6 | 2.6 | 0.00 | 0.00 | 0.00 | 56 | 1010.7 |
| 20260509191814 | 68 | 320 | 1.7 | 3.5 | 0.00 | 0.00 | 0.00 | 58 | 1010.9 |
| 20260509191310 | 68 | 185 | 1.7 | 2.6 | 0.00 | 0.00 | 0.00 | 58 | 1010.8 |
| 20260509190806 | 67 | 290 | 3.5 | 6.1 | 0.00 | 0.00 | 0.00 | 58 | 1010.7 |
| 20260509190304 | 67 | 315 | 0.9 | 5.2 | 0.00 | 0.00 | 0.00 | 61 | 1010.6 |
| 20260509185801 | 67 | 325 | 0.9 | 2.6 | 0.00 | 0.00 | 0.00 | 58 | 1010.6 |
| 20260509185257 | 67 | 272 | 1.7 | 2.6 | 0.00 | 0.00 | 0.00 | 58 | 1010.7 |
| 20260509184754 | 68 | 162 | 0.9 | 5.2 | 0.00 | 0.00 | 0.00 | 56 | 1010.7 |
| 20260509184252 | 67 | 289 | 2.6 | 5.2 | 0.00 | 0.00 | 0.00 | 58 | 1010.7 |
| 20260509183748 | 67 | 30 | 1.7 | 5.2 | 0.00 | 0.00 | 0.00 | 58 | 1010.8 |
| 20260509183244 | 66 | 261 | 4.3 | 7.0 | 0.00 | 0.00 | 0.00 | 57 | 1010.7 |
| 20260509182739 | 66 | 283 | 1.7 | 6.1 | 0.00 | 0.00 | 0.00 | 59 | 1010.6 |
| 20260509182237 | 67 | 313 | 3.5 | 3.5 | 0.00 | 0.00 | 0.00 | 56 | 1010.7 |
| 20260509181734 | 66 | 293 | 5.2 | 6.1 | 0.00 | 0.00 | 0.00 | 56 | 1010.8 |
| 20260509181231 | 66 | 237 | 0.9 | 6.1 | 0.00 | 0.00 | 0.00 | 56 | 1010.8 |
| 20260509180728 | 66 | 259 | 0.9 | 2.6 | 0.00 | 0.00 | 0.00 | 56 | 1010.8 |
| 20260509180225 | 66 | 108 | 0.9 | 2.6 | 0.00 | 0.00 | 0.00 | 56 | 1010.6 |
| 20260509175721 | 67 | 288 | 3.5 | 5.2 | 0.00 | 0.00 | 0.00 | 54 | 1010.6 |
| 20260509175218 | 67 | 285 | 0.9 | 2.6 | 0.00 | 0.00 | 0.00 | 58 | 1010.8 |
| 20260509174714 | 66 | 57 | 0.0 | 3.5 | 0.00 | 0.00 | 0.00 | 54 | 1010.7 |
| 20260509174209 | 66 | 63 | 0.0 | 1.7 | 0.00 | 0.00 | 0.00 | 55 | 1010.9 |
| 20260509173705 | 65 | 61 | 0.9 | 1.7 | 0.00 | 0.00 | 0.00 | 55 | 1010.7 |
| 20260509173201 | 65 | 50 | 0.0 | 5.2 | 0.00 | 0.00 | 0.00 | 57 | 1010.9 |
| 20260509172657 | 65 | 255 | 1.7 | 2.6 | 0.00 | 0.00 | 0.00 | 55 | 1011.0 |
| 20260509172154 | 65 | 286 | 3.5 | 5.2 | 0.00 | 0.00 | 0.00 | 56 | 1011.0 |
| 20260509171649 | 65 | 66 | 1.7 | 3.5 | 0.00 | 0.00 | 0.00 | 56 | 1011.1 |
| 20260509171146 | 65 | 279 | 0.9 | 3.5 | 0.00 | 0.00 | 0.00 | 58 | 1011.0 |
| 20260509170643 | 65 | 263 | 1.7 | 2.6 | 0.00 | 0.00 | 0.00 | 56 | 1011.2 |
| 20260509170138 | 66 | 260 | 0.9 | 1.7 | 0.00 | 0.00 | 0.00 | 53 | 1011.3 |
| 20260509165637 | 65 | 312 | 0.0 | 2.6 | 0.00 | 0.00 | 0.00 | 58 | 1011.1 |
| 20260509165133 | 65 | 95 | 0.0 | 1.7 | 0.00 | 0.00 | 0.00 | 56 | 1011.2 |
| 20260509164629 | 64 | 142 | 0.0 | 0.9 | 0.00 | 0.00 | 0.00 | 55 | 1011.0 |
| 20260509164125 | 64 | 319 | 1.7 | 2.6 | 0.00 | 0.00 | 0.00 | 56 | 1011.3 |
| 20260509163623 | 63 | 277 | 1.7 | 2.6 | 0.00 | 0.00 | 0.00 | 58 | 1011.2 |
| 20260509163118 | 63 | 299 | 1.7 | 5.2 | 0.00 | 0.00 | 0.00 | 58 | 1011.3 |
| 20260509162615 | 63 | 340 | 0.9 | 3.5 | 0.00 | 0.00 | 0.00 | 58 | 1011.1 |
| 20260509162111 | 63 | 229 | 1.7 | 5.2 | 0.00 | 0.00 | 0.00 | 57 | 1011.4 |
| 20260509161603 | 63 | 284 | 2.6 | 2.6 | 0.00 | 0.00 | 0.00 | 62 | 1011.3 |
| 20260509161102 | 62 | 274 | 0.9 | 1.7 | 0.00 | 0.00 | 0.00 | 65 | 1011.0 |
| 20260509160558 | 62 | 322 | 0.9 | 1.7 | 0.00 | 0.00 | 0.00 | 62 | 1011.2 |
| 20260509160054 | 62 | 264 | 0.9 | 2.6 | 0.00 | 0.00 | 0.00 | 63 | 1011.1 |
| 20260509155550 | 62 | 313 | 2.6 | 2.6 | 0.00 | 0.00 | 0.00 | 63 | 1011.0 |
| 20260509155047 | 61 | 326 | 0.9 | 1.7 | 0.00 | 0.00 | 0.00 | 65 | 1011.0 |
| 20260509154543 | 62 | 301 | 1.7 | 1.7 | 0.00 | 0.00 | 0.00 | 65 | 1011.1 |
| 20260509154040 | 62 | 317 | 0.0 | 0.9 | 0.00 | 0.00 | 0.00 | 66 | 1011.2 |
| 20260509153537 | 61 | 88 | 0.9 | 2.6 | 0.00 | 0.00 | 0.00 | 68 | 1011.3 |
| 20260509153034 | 61 | 45 | 0.0 | 0.0 | 0.00 | 0.00 | 0.00 | 68 | 1011.1 |
| 20260509152530 | 61 | 85 | 2.6 | 2.6 | 0.00 | 0.00 | 0.00 | 67 | 1011.1 |
| 20260509152027 | 61 | 105 | 1.7 | 3.5 | 0.00 | 0.00 | 0.00 | 68 | 1011.3 |
| 20260509151523 | 62 | 89 | 1.7 | 3.5 | 0.00 | 0.00 | 0.00 | 66 | 1011.2 |
| 20260509151021 | 62 | 97 | 0.9 | 2.6 | 0.00 | 0.00 | 0.00 | 67 | 1011.2 |
| 20260509150518 | 62 | 0 | 0.0 | 0.9 | 0.00 | 0.00 | 0.00 | 71 | 1011.3 |
| 20260509150017 | 61 | 107 | 1.7 | 2.6 | 0.00 | 0.00 | 0.00 | 70 | 1011.3 |
| 20260509145512 | 61 | 81 | 0.0 | 2.6 | 0.00 | 0.00 | 0.00 | 72 | 1011.5 |
| 20260509145007 | 61 | 64 | 0.0 | 0.9 | 0.00 | 0.00 | 0.00 | 71 | 1011.6 |
| 20260509144505 | 61 | 95 | 0.9 | 2.6 | 0.00 | 0.00 | 0.00 | 69 | 1011.7 |
| 20260509144002 | 60 | 340 | 0.0 | 0.9 | 0.00 | 0.00 | 0.00 | 70 | 1011.6 |
| 20260509143458 | 60 | 319 | 0.0 | 0.9 | 0.00 | 0.00 | 0.00 | 71 | 1011.6 |
| 20260509142955 | 59 | 11 | 0.0 | 0.9 | 0.00 | 0.00 | 0.00 | 70 | 1011.7 |
| 20260509142452 | 60 | 316 | 1.7 | 1.7 | 0.00 | 0.00 | 0.00 | 71 | 1011.4 |
| 20260509141947 | 60 | 181 | 0.0 | 0.9 | 0.00 | 0.00 | 0.00 | 69 | 1011.5 |
| 20260509141444 | 61 | 48 | 0.0 | 0.9 | 0.00 | 0.00 | 0.00 | 68 | 1011.3 |
| 20260509140941 | 62 | 351 | 0.0 | 0.9 | 0.00 | 0.00 | 0.00 | 67 | 1011.3 |
| 20260509140437 | 61 | 248 | 0.0 | 1.7 | 0.00 | 0.00 | 0.00 | 65 | 1011.3 |
| 20260509135936 | 60 | 72 | 0.9 | 1.7 | 0.00 | 0.00 | 0.00 | 68 | 1011.4 |
| 20260509135433 | 60 | 153 | 0.0 | 1.7 | 0.00 | 0.00 | 0.00 | 67 | 1011.2 |
| 20260509134930 | 60 | 179 | 0.0 | 1.7 | 0.00 | 0.00 | 0.00 | 71 | 1011.3 |
| 20260509134427 | 59 | 262 | 0.0 | 0.9 | 0.00 | 0.00 | 0.00 | 71 | 1011.4 |
| 20260509133925 | 59 | 217 | 0.0 | 2.6 | 0.00 | 0.00 | 0.00 | 71 | 1011.6 |
| 20260509133421 | 58 | 153 | 3.5 | 3.5 | 0.00 | 0.00 | 0.00 | 72 | 1011.3 |
| 20260509132919 | 58 | 238 | 0.0 | 0.0 | 0.00 | 0.00 | 0.00 | 75 | 1011.6 |
| 20260509132417 | 57 | 236 | 0.0 | 0.0 | 0.00 | 0.00 | 0.00 | 80 | 1011.6 |
| 20260509131914 | 56 | 236 | 0.0 | 0.0 | 0.00 | 0.00 | 0.00 | 82 | 1011.7 |
| 20260509131411 | 56 | 233 | 0.0 | 0.0 | 0.00 | 0.00 | 0.00 | 83 | 1011.5 |
| 20260509130908 | 56 | 233 | 0.0 | 0.0 | 0.00 | 0.00 | 0.00 | 83 | 1011.9 |
| 20260509130403 | 56 | 236 | 0.0 | 0.0 | 0.00 | 0.00 | 0.00 | 82 | 1012.0 |
| 20260509125900 | 56 | 236 | 0.0 | 0.0 | 0.00 | 0.00 | 0.00 | 81 | 1012.1 |
| 20260509125356 | 56 | 235 | 0.0 | 0.0 | 0.00 | 0.00 | 0.00 | 81 | 1012.1 |
| 20260509124852 | 55 | 236 | 0.0 | 0.0 | 0.00 | 0.00 | 0.00 | 83 | 1012.1 |
| 20260509124350 | 55 | 236 | 0.0 | 0.0 | 0.00 | 0.00 | 0.00 | 86 | 1012.1 |
| 20260509123848 | 54 | 232 | 0.0 | 0.0 | 0.00 | 0.00 | 0.00 | 87 | 1011.8 |
| 20260509123345 | 54 | 236 | 0.0 | 0.0 | 0.00 | 0.00 | 0.00 | 86 | 1011.9 |
| 20260509122840 | 54 | 225 | 0.0 | 0.0 | 0.00 | 0.00 | 0.00 | 88 | 1012.0 |
| 20260509122337 | 53 | 236 | 0.0 | 0.0 | 0.00 | 0.00 | 0.00 | 88 | 1011.9 |
| 20260509121834 | 53 | 236 | 0.0 | 0.0 | 0.00 | 0.00 | 0.00 | 89 | 1011.9 |
| 20260509121331 | 52 | 236 | 0.0 | 0.0 | 0.00 | 0.00 | 0.00 | 89 | 1011.9 |
| 20260509120830 | 52 | 236 | 0.0 | 0.0 | 0.00 | 0.00 | 0.00 | 91 | 1012.0 |
| 20260509120327 | 52 | 236 | 0.0 | 0.0 | 0.00 | 0.00 | 0.00 | 92 | 1011.8 |
| 20260509115825 | 51 | 236 | 0.0 | 0.0 | 0.00 | 0.00 | 0.00 | 92 | 1011.9 |
| 20260509115322 | 51 | 236 | 0.0 | 0.0 | 0.00 | 0.00 | 0.00 | 93 | 1011.8 |
| 20260509114820 | 51 | 236 | 0.0 | 0.0 | 0.00 | 0.00 | 0.00 | 93 | 1011.7 |
| 20260509114318 | 51 | 236 | 0.0 | 0.0 | 0.00 | 0.00 | 0.00 | 93 | 1011.7 |
| 20260509113817 | 51 | 236 | 0.0 | 0.9 | 0.00 | 0.00 | 0.00 | 93 | 1011.8 |
| 20260509113313 | 51 | 236 | 0.0 | 0.0 | 0.00 | 0.00 | 0.00 | 93 | 1011.9 |
| 20260509112810 | 51 | 236 | 0.0 | 0.0 | 0.00 | 0.00 | 0.00 | 93 | 1011.7 |
| 20260509112308 | 51 | 236 | 0.0 | 0.0 | 0.00 | 0.00 | 0.00 | 94 | 1011.7 |
| 20260509111804 | 51 | 236 | 0.0 | 0.0 | 0.00 | 0.00 | 0.00 | 94 | 1011.6 |
| 20260509111301 | 51 | 236 | 0.0 | 0.0 | 0.00 | 0.00 | 0.00 | 94 | 1011.6 |
| 20260509110759 | 51 | 236 | 0.0 | 0.0 | 0.00 | 0.00 | 0.00 | 94 | 1011.9 |
| 20260509110255 | 50 | 236 | 0.0 | 0.0 | 0.00 | 0.00 | 0.00 | 94 | 1011.9 |
| 20260509105753 | 50 | 236 | 0.0 | 0.0 | 0.00 | 0.00 | 0.00 | 94 | 1011.7 |
| 20260509105251 | 50 | 236 | 0.0 | 0.0 | 0.00 | 0.00 | 0.00 | 94 | 1011.9 |
| 20260509104747 | 50 | 236 | 0.0 | 0.0 | 0.00 | 0.00 | 0.00 | 95 | 1011.7 |
| 20260509104244 | 50 | 236 | 0.0 | 0.0 | 0.00 | 0.00 | 0.00 | 95 | 1011.7 |
| 20260509103743 | 50 | 236 | 0.0 | 0.0 | 0.00 | 0.00 | 0.00 | 95 | 1011.6 |
| 20260509103239 | 50 | 236 | 0.0 | 0.0 | 0.00 | 0.00 | 0.00 | 95 | 1011.6 |
| 20260509102738 | 50 | 236 | 0.0 | 0.0 | 0.00 | 0.00 | 0.00 | 95 | 1011.6 |
| 20260509102234 | 50 | 236 | 0.0 | 0.0 | 0.00 | 0.00 | 0.00 | 95 | 1011.4 |
| 20260509101731 | 50 | 236 | 0.0 | 0.0 | 0.00 | 0.00 | 0.00 | 94 | 1011.4 |
| 20260509101227 | 50 | 236 | 0.0 | 0.0 | 0.00 | 0.00 | 0.00 | 94 | 1011.3 |
| 20260509100724 | 50 | 236 | 0.0 | 0.0 | 0.00 | 0.00 | 0.00 | 93 | 1011.2 |
| 20260509100222 | 50 | 236 | 0.0 | 0.0 | 0.00 | 0.00 | 0.00 | 93 | 1011.5 |
| 20260509095718 | 50 | 236 | 0.0 | 0.0 | 0.00 | 0.00 | 0.00 | 93 | 1011.6 |
| 20260509095216 | 50 | 236 | 0.0 | 0.0 | 0.00 | 0.00 | 0.00 | 94 | 1011.5 |
| 20260509094712 | 50 | 236 | 0.0 | 0.0 | 0.00 | 0.00 | 0.00 | 94 | 1011.6 |
| 20260509094209 | 51 | 236 | 0.0 | 0.0 | 0.00 | 0.00 | 0.00 | 94 | 1011.7 |
| 20260509093708 | 51 | 236 | 0.0 | 0.0 | 0.00 | 0.00 | 0.00 | 94 | 1011.7 |
| 20260509093204 | 51 | 236 | 0.0 | 0.0 | 0.00 | 0.00 | 0.00 | 93 | 1011.5 |
| 20260509092702 | 51 | 236 | 0.0 | 0.0 | 0.00 | 0.00 | 0.00 | 93 | 1011.5 |
| 20260509092200 | 51 | 236 | 0.0 | 0.0 | 0.00 | 0.00 | 0.00 | 93 | 1011.7 |
| 20260509091658 | 51 | 236 | 0.0 | 0.0 | 0.00 | 0.00 | 0.00 | 93 | 1011.7 |
| 20260509091154 | 51 | 236 | 0.0 | 0.0 | 0.00 | 0.00 | 0.00 | 93 | 1011.8 |
| 20260509090652 | 51 | 236 | 0.0 | 0.0 | 0.00 | 0.00 | 0.00 | 92 | 1011.7 |
| 20260509090149 | 51 | 235 | 0.0 | 0.0 | 0.00 | 0.00 | 0.00 | 93 | 1012.0 |
| 20260509085647 | 51 | 235 | 0.0 | 0.0 | 0.00 | 0.00 | 0.00 | 92 | 1011.8 |
| 20260509085142 | 51 | 236 | 0.0 | 0.0 | 0.00 | 0.00 | 0.00 | 93 | 1011.8 |
| 20260509084640 | 51 | 236 | 0.0 | 0.0 | 0.00 | 0.00 | 0.00 | 92 | 1011.8 |
| 20260509084137 | 51 | 236 | 0.0 | 0.0 | 0.00 | 0.00 | 0.00 | 92 | 1011.8 |
| 20260509083634 | 51 | 236 | 0.0 | 0.0 | 0.00 | 0.00 | 0.00 | 92 | 1011.7 |
| 20260509083130 | 51 | 236 | 0.0 | 0.0 | 0.00 | 0.00 | 0.00 | 92 | 1011.9 |
| 20260509082628 | 51 | 236 | 0.0 | 0.0 | 0.00 | 0.00 | 0.00 | 92 | 1011.9 |
| 20260509082124 | 51 | 232 | 0.0 | 0.0 | 0.00 | 0.00 | 0.00 | 91 | 1012.0 |
| 20260509081622 | 51 | 219 | 0.0 | 0.0 | 0.00 | 0.00 | 0.00 | 91 | 1011.9 |
| 20260509081119 | 51 | 233 | 0.0 | 0.0 | 0.00 | 0.00 | 0.00 | 91 | 1011.9 |
| 20260509080617 | 51 | 237 | 0.9 | 0.9 | 0.00 | 0.00 | 0.00 | 91 | 1012.0 |
| 20260509080114 | 51 | 233 | 0.0 | 0.0 | 0.00 | 0.00 | 0.00 | 91 | 1011.7 |
| 20260509075612 | 51 | 235 | 0.0 | 0.0 | 0.00 | 0.00 | 0.00 | 91 | 1011.9 |
| 20260509075110 | 52 | 234 | 0.0 | 0.0 | 0.00 | 0.00 | 0.00 | 91 | 1011.6 |
| 20260509074606 | 52 | 232 | 0.0 | 0.0 | 0.00 | 0.00 | 0.00 | 91 | 1011.6 |
| 20260509074103 | 52 | 229 | 0.0 | 0.0 | 0.00 | 0.00 | 0.00 | 91 | 1011.5 |
| 20260509073600 | 52 | 233 | 0.0 | 0.0 | 0.00 | 0.00 | 0.00 | 91 | 1011.7 |
| 20260509073056 | 52 | 234 | 0.0 | 0.0 | 0.00 | 0.00 | 0.00 | 91 | 1011.7 |